RH
53 56 58 59 60 61 62 64 65 64 62 60 58 56 53 50 45 39 34 30 29 29 28 26 26 26 25 23 21 22 23 22 22 23 25 26 26 26 27 28 29 29 28 27 24 25 27 28 29 30 30 29 29 28 29 30 30 31 32 33 33 34 35
51 53 55 56 57 58 59 62 64 64 63 62 60 58 55 51 47 42 36 32 30 30 30 28 27 26 25 23 21 21 22 22 21 21 23 25 25 25 25 26 27 26 26 26 25 24 25 27 27 28 29 29 29 28 28 28 28 30 31 32 32 33 34
43 48 51 52 53 55 58 61 62 63 63 62 60 59 56 52 49 44 38 34 31 30 31 30 28 27 25 24 22 20 20 21 21 21 21 22 23 24 24 25 25 25 25 25 26 24 24 25 26 26 28 28 29 29 29 28 28 28 30 31 31 31 32
36 45 49 51 52 54 57 60 61 61 62 62 60 59 58 55 52 48 42 36 33 31 31 31 30 28 27 26 24 20 19 20 21 21 20 21 21 22 23 24 24 24 24 23 24 24 23 23 24 25 26 28 28 29 29 29 28 27 28 30 30 31 32
34 45 51 51 51 52 54 58 59 59 59 60 61 61 60 58 55 51 46 40 35 33 32 32 32 31 29 27 25 23 20 19 19 20 20 20 21 21 21 22 22 24 24 23 22 22 22 22 23 23 24 25 27 28 29 29 30 29 28 29 29 31 33
30 39 46 47 47 49 52 55 56 56 57 58 61 62 61 61 59 54 50 43 38 35 33 33 33 32 30 29 28 25 22 20 19 19 20 20 20 20 20 19 20 22 23 22 22 21 21 21 22 22 23 24 25 27 28 28 29 30 30 30 30 31 32
26 30 35 40 44 47 49 53 54 55 56 57 60 64 64 63 62 59 54 48 40 37 35 34 34 33 32 31 29 28 25 22 20 20 19 19 20 20 20 19 18 19 21 22 22 21 21 21 21 21 23 23 24 25 27 27 27 29 31 33 33 31 31
26 27 29 34 41 45 48 51 54 54 55 57 58 62 63 64 64 61 57 52 44 39 37 35 35 34 34 33 31 30 28 26 23 22 21 19 19 19 20 20 18 18 19 20 20 21 21 20 20 21 22 22 23 24 25 27 28 28 30 33 35 34 32
29 29 31 34 41 48 51 53 55 55 54 55 57 59 62 64 64 62 59 55 48 41 38 38 37 36 36 35 32 31 30 30 27 25 23 21 19 18 19 19 20 19 18 17 18 19 20 20 20 20 21 22 23 23 24 25 27 28 29 31 33 34 33
34 34 35 39 45 50 54 56 61 61 56 53 56 58 60 62 64 63 61 58 52 44 40 40 39 38 37 35 34 33 31 31 31 29 26 23 20 19 18 18 19 20 19 17 17 17 18 19 18 19 19 20 21 22 22 23 25 27 30 30 31 32 33
38 39 42 47 50 52 54 56 62 66 62 57 57 58 60 63 65 66 63 61 58 51 46 42 41 40 39 36 35 35 33 32 31 31 29 25 21 19 17 17 17 19 19 18 18 17 16 17 17 17 17 18 18 19 21 22 23 25 28 30 30 30 32
45 47 51 54 55 56 57 57 58 64 65 59 57 58 60 65 69 70 68 66 64 60 55 49 44 41 40 38 36 34 34 33 31 30 29 28 25 21 18 17 16 17 17 18 18 17 16 16 16 16 16 15 16 16 18 20 21 22 25 28 29 28 31
54 56 59 58 57 57 59 58 58 61 64 61 56 55 58 63 70 74 73 72 70 67 64 58 51 45 42 40 38 35 34 33 31 30 29 29 29 27 23 20 17 16 16 16 17 16 16 15 15 14 14 14 14 14 15 17 19 20 22 25 27 27 28
56 61 64 61 60 59 59 59 59 61 65 63 59 57 57 60 67 72 73 73 73 70 69 66 60 53 47 43 40 37 35 34 33 32 31 30 31 31 29 26 22 20 17 16 16 16 16 16 15 14 14 14 14 14 14 15 17 18 19 22 25 26 27
56 61 65 65 65 64 61 60 60 62 66 66 62 60 58 60 65 69 71 71 72 71 70 71 69 64 58 51 46 42 39 37 36 35 34 33 32 32 32 31 28 26 23 21 19 17 17 17 16 15 15 14 14 14 14 14 15 17 17 20 23 25 25
57 61 65 66 67 66 64 61 59 61 66 68 66 63 60 60 65 70 72 73 75 74 71 71 73 74 70 62 55 51 46 42 38 36 35 34 32 31 30 31 31 30 29 26 24 22 20 19 19 18 16 15 15 14 15 15 15 16 17 18 21 22 23
58 62 64 65 67 67 65 62 61 62 64 68 69 66 63 63 66 70 73 75 76 76 73 69 69 73 73 69 65 61 56 49 43 40 38 37 36 34 32 32 31 31 31 30 29 27 25 23 22 20 19 18 17 16 16 15 15 16 17 18 19 21 22
64 64 64 63 64 67 66 63 63 64 65 67 69 67 65 66 67 69 73 75 75 75 75 72 69 68 67 68 71 70 65 57 51 46 43 41 40 39 36 35 33 32 32 32 31 30 29 27 25 23 22 21 20 18 17 17 17 17 18 19 19 20 21
70 67 65 63 62 65 67 65 65 66 66 66 67 67 66 67 69 71 73 76 77 76 75 76 76 75 68 64 66 68 67 64 60 53 49 46 42 41 40 38 36 34 32 32 32 32 32 31 29 27 25 23 22 20 19 18 18 19 19 20 20 20 21
74 70 68 65 63 64 67 67 66 68 69 67 65 64 64 66 70 72 73 76 78 78 77 76 77 79 76 68 62 59 59 62 63 59 54 50 45 42 41 39 37 36 35 33 33 33 33 32 32 30 28 26 24 22 21 19 19 20 20 21 21 21 21
74 73 71 68 66 66 68 68 66 65 66 67 66 63 62 64 69 72 74 76 78 78 81 80 78 77 77 73 66 60 55 54 55 55 56 55 50 44 41 39 38 36 35 35 34 33 33 33 33 32 30 28 26 24 22 20 19 20 21 21 22 22 23
72 73 74 72 70 69 68 69 68 65 62 64 68 67 65 64 65 67 70 72 74 77 81 82 80 79 76 73 68 64 61 58 54 51 53 56 55 48 42 40 39 37 36 36 35 34 33 33 33 32 31 29 28 27 23 21 20 20 20 21 22 24 24
70 71 73 73 72 71 69 67 66 65 62 61 63 66 67 66 64 65 68 68 69 74 79 80 80 80 78 74 71 69 68 67 64 58 56 57 57 52 46 43 42 40 38 37 37 35 34 32 31 31 30 29 28 27 24 20 19 20 20 20 22 24 25
69 70 72 73 72 72 69 65 63 62 60 60 61 62 64 66 66 66 66 64 63 69 76 78 79 79 78 77 75 72 71 70 69 66 63 59 55 50 46 44 44 43 42 40 39 37 36 34 33 32 31 29 27 26 24 22 20 20 19 20 22 24 26
66 68 70 72 74 73 69 66 64 61 58 57 59 60 60 63 67 69 67 62 61 65 71 75 77 77 78 78 75 73 72 71 69 66 63 59 54 50 48 47 45 44 43 43 42 40 40 38 36 34 32 30 28 26 25 23 22 21 20 20 21 23 25
61 63 65 68 73 74 71 67 66 64 60 56 56 60 61 61 63 68 68 64 61 61 65 71 74 74 77 79 77 74 73 72 69 66 63 58 54 54 53 50 48 46 44 43 43 44 43 40 37 35 34 32 30 29 27 26 24 23 21 20 20 22 24
55 59 62 64 68 72 74 72 68 65 63 59 57 59 63 63 60 60 61 61 62 61 61 64 69 71 72 75 76 75 74 72 71 70 66 59 55 55 55 53 50 47 45 44 45 46 46 42 38 37 36 34 33 31 29 28 27 24 23 21 20 21 23
54 56 59 61 62 65 70 74 72 66 63 62 60 59 61 63 61 57 55 58 63 64 63 65 68 69 68 69 73 76 76 74 72 73 72 66 59 56 56 55 52 49 47 47 48 48 48 44 42 40 38 37 36 34 32 30 29 27 25 23 21 21 23
54 56 57 60 60 60 63 70 72 69 63 60 60 59 59 62 63 59 55 57 62 64 64 68 69 67 67 68 70 74 76 76 75 74 74 72 66 60 58 57 54 51 49 48 49 50 50 48 45 44 42 41 40 38 36 34 32 30 28 25 24 23 23
50 53 56 58 59 59 60 63 66 68 65 61 60 59 58 59 61 60 56 58 62 63 62 65 65 64 65 69 72 73 75 77 77 73 74 76 73 66 63 61 57 54 52 50 49 50 50 49 48 47 46 45 44 42 40 38 36 34 32 29 27 26 24
45 48 52 56 57 58 59 60 60 64 66 65 61 59 58 57 56 56 55 56 60 62 62 61 61 62 65 68 70 72 74 74 74 73 73 76 75 69 65 65 62 59 56 55 53 52 51 50 49 48 48 47 46 45 44 43 41 39 37 35 33 30 28
43 43 48 52 54 55 57 58 57 59 62 64 62 60 60 59 56 54 54 54 56 59 61 58 57 59 63 63 65 70 73 71 69 71 73 75 74 68 64 64 64 62 61 61 59 57 55 53 52 51 49 49 50 50 49 47 45 44 42 41 39 37 35
43 41 43 47 49 52 53 55 55 56 58 61 63 63 61 59 58 56 54 53 53 55 56 54 53 54 56 56 59 66 70 68 67 69 72 74 72 67 66 66 65 63 62 62 62 61 59 58 57 55 54 53 55 56 55 51 48 48 47 45 44 43 41
45 41 41 43 45 47 49 51 53 54 55 57 60 63 63 60 59 57 55 55 55 54 53 51 50 52 53 53 54 58 61 64 67 68 70 71 71 70 69 69 65 61 61 61 62 62 62 61 59 57 56 56 59 61 59 54 52 52 51 50 49 49 48
44 41 40 42 43 43 45 48 49 51 54 54 55 60 62 63 61 58 55 56 57 57 55 51 49 51 54 54 54 55 56 60 65 66 65 67 68 69 68 67 63 59 57 58 60 62 62 60 58 56 56 57 59 59 57 53 52 53 54 53 53 54 53
41 41 40 42 44 43 43 46 48 49 51 51 52 54 56 59 63 62 60 59 59 59 58 54 50 52 55 54 53 54 54 56 60 61 60 61 61 62 62 62 61 59 57 57 60 61 61 59 57 56 57 58 56 55 53 50 50 53 54 52 53 55 55
39 39 39 41 43 43 43 44 46 47 48 49 50 51 50 52 59 65 66 64 61 59 58 56 53 54 54 53 51 52 54 55 56 55 54 56 56 57 57 56 57 57 58 60 60 59 58 57 56 56 57 55 53 53 52 50 51 53 53 52 53 55 57
37 37 38 38 40 42 43 43 43 45 46 47 47 50 50 48 51 60 66 66 64 61 57 54 54 55 54 52 50 49 51 54 54 51 49 51 55 57 56 57 57 56 56 57 58 58 57 56 56 56 55 53 53 54 53 52 54 55 54 54 54 54 56